INTELSAT 805 (IS-805) (25371 NORAD) Tracking and Keplerian Element Data

This shows tracking and keplerian element data for the satellite.

Feedback or suggestion? Click here.




ElementValue
Catalog25371
NameINTELSAT 805 (IS-805)
Epoch Orbit8252
Epoch Day365.68137457
Epoch Year2020
RAAN86.1972
Inclination2.9221
Eccentricity0.0010992
Argument of Perigee114.0792
Mean Anonmoly6.213
Mean Motion0.99475025
Decay Rate1.2E-06
L11 25371U 98037A 20365.68137457 .00000120 00000-0 00000-0 0 9995
L22 25371 2.9221 86.1972 0010992 114.0792 6.2130 0.99475025 82524



Live tracking and technical data element details for INTELSAT 805 (IS-805) (NORAD 25371). INTELSAT 805 (IS-805) can be tracked NOW for your location showing map with azimuth and elevation plus other details from your city location.







IsCatalogInMostPopularTable: catalog: 25371, numindb: 604
Update: records affected: 1



GetName: 25371 INTELSAT 805 (IS-805)

Hit Count: updated at: Mon, 17 Jun 2024 22:29:50 GMT